Weather in Tetouan

Morocco     35°34′28″N   5°22′26″W
temp.,
°C
wind,
m/s
gust,
m/s
humid.,
%
clouds,
%
prec.,
mm/h
press.,
hPa
HPBL,
m
22 january, sat
sat2201:00+11e567982 0.3 1024509
04:00+11e577396 0.1 1024708
07:00+11e577795 0.1 1024743
10:00+11ese577688 0.1 1025993
13:00+13e576735 0.1 1025943
16:00+13e566842 0.0 1023918
19:00+10ese457787 0.0 1024279
22:00+11e567557 0.0 1025437
23 january, sun
sun2301:00+12e467689 0.0 1024750
04:00+12e457593 0.0 1024715
07:00+11e458390 0.1 1023569
10:00+12ese3482100 0.1 1024629
13:00+12e458497 0.9 1025738
16:00+12e568284 0.1 1023767
19:00+11e458896 0.3 1023433
22:00+11e469097 0.2 1024464
24 january, mon
mon2401:00+11e468999 0.3 1024447
04:00+11e4590100 0.1 1023474
07:00+11e4691100 0.5 1023557
10:00+11e4691100 0.7 1025450
13:00+11e4692100 1.4 1025771
16:00+11e5792100 0.8 1024801
19:00+11e6992100 1.6 1025908
22:00+11e589399 0.8 1026757
25 january, tue
tue2501:00+11e578789 1.2 1026524
04:00+11e6990100 0.5 1026703
07:00+11e61090100 1.4 1025808
10:00+11e71187100 1.0 1026939
13:00+12e7108499 1.6 1026994
16:00+11e71088100 0.8 1025989
19:00+11e61088100 1.3 1025702
22:00+11e7119097 0.4 1026928
26 january, wed
wed2601:00+11e699197 0.9 1025759
04:00+12e5792100 0.4 1024500
07:00+12e469298 0.8 1024394
10:00+13ene358789 0.4 1024576
13:00+14ne3368100 0.4 1023713
16:00+14ne3465100 0.0 1022565
19:00+12ene3482100 0.0 1023191
22:00+11ne239191 0.0 1023128